Tracking 30743 objects as of 22-Jun-2025
HD Live streaming from Space Station
objects crossing your sky now

STARLINK-32472

Track STARLINK-32472 now!
10-day predictions
STARLINK-32472 is classified as:


NORAD ID: 61846
Int'l Code: 2024-202B
Perigee: 488.2 km
Apogee: 492.1 km
Inclination: 43.0 °
Period: 94.3 minutes
Semi major axis: 6861 km
RCS: Unknown
Launch date: November 7, 2024
Source: United States (US)
Launch site: AIR FORCE EASTERN TEST RANGE (AFETR)
Your satellite tracking list
Your tracking list is empty




NASA's NSSDC Master Catalog

Two Line Element Set (TLE):
1 61846U 24202B   25172.91668981 -.00023168  00000-0 -83429-3 0  9991
2 61846  42.9993 259.9966 0002869 274.4723 299.1733 15.27603232 36153
Source of the keplerian elements: AFSPC